COSMOS 2522 (752)

Last updated on Jan. 18, 2020, 4:38 a.m. UTC

1 42939U 17055A   20017.34414971 -.00000002  00000-0  00000+0 0  9990
2 42939  64.4054 272.3214 0006953 257.2155 280.2135  2.13102137 18058
UTC
Height (km)
Latitude
Longitude
Inclination
Orbital Period
UTC large
Height (km)
Speed (km/s)
/
Latitude / Longitude
Inclination (degrees)
Orbital Period (minutes)
Azimuth
Elevation
Range (km)
Doppler Factor
iOS Compass Heading
iOS Angle

Next 30 passes for location: Hong Kong

Rise time Rise Azimuth (degrees) Set time Set Azimuth (degrees) Duration Max altitude (degrees)

No matching passes for this satellites